AF5AA Weather Reports


Display with metric or nautical units.
time (UTC)temp
F
wind
direction
speed
MPH
gust
MPH
rain 1hr
in
rain 24hr
in
rain mn
in
humidity
%
barometer
mb
20260508060107 59 97 0.0 0.0 0.00 0.00 0.00 98 1014.6
20260508055602 59 97 0.0 0.0 0.00 0.00 0.00 98 1014.4
20260508055100 59 97 0.0 0.0 0.00 0.00 0.00 98 1014.7
20260508054556 59 97 0.0 0.0 0.00 0.00 0.00 98 1014.7
20260508054053 59 97 0.0 0.0 0.00 0.00 0.00 97 1014.7
20260508053550 59 96 0.0 0.0 0.00 0.00 0.00 97 1014.8
20260508053048 59 96 0.0 0.0 0.00 0.00 0.00 97 1014.8
20260508052545 59 96 0.0 0.0 0.00 0.00 0.00 97 1014.8
20260508052042 60 96 0.0 0.0 0.00 0.00 0.00 97 1014.9
20260508051538 60 94 0.0 0.0 0.00 0.00 0.00 97 1014.6
20260508051034 60 88 0.0 0.0 0.00 0.00 0.00 97 1014.5
20260508050530 60 91 0.0 0.0 0.00 0.00 0.00 97 1014.7
20260508050027 60 90 0.0 0.0 0.00 0.00 0.00 97 1015.1
20260508045523 60 69 0.0 0.0 0.00 0.00 0.00 97 1015.1
20260508045021 60 94 0.0 0.0 0.00 0.00 0.00 97 1014.9
20260508044519 60 80 0.0 0.0 0.00 0.00 0.00 97 1015.2
20260508044014 60 112 0.0 0.0 0.00 0.00 0.00 97 1015.3
20260508043511 60 112 0.0 0.0 0.00 0.00 0.00 97 1015.4
20260508043008 60 107 0.0 0.0 0.00 0.00 0.00 97 1015.2
20260508042505 60 95 0.0 0.0 0.00 0.00 0.00 97 1014.9
20260508042002 60 95 0.0 0.0 0.00 0.00 0.00 97 1014.8
20260508041459 60 95 0.0 0.0 0.00 0.00 0.00 97 1015.3
20260508040955 60 73 0.0 0.0 0.00 0.00 0.00 97 1015.0
20260508040453 60 95 0.0 0.0 0.00 0.00 0.00 96 1015.2
20260508035950 60 92 0.0 0.0 0.00 0.00 0.00 96 1014.9
20260508035447 60 105 0.0 0.0 0.00 0.00 0.00 96 1015.5
20260508034944 60 98 0.0 0.0 0.00 0.00 0.00 96 1015.2
20260508034441 60 107 0.0 1.0 0.00 0.00 0.00 96 1015.3
20260508033937 60 82 0.0 0.0 0.00 0.00 0.00 96 1015.2
20260508033436 60 94 0.0 0.0 0.00 0.00 0.00 96 1015.0
20260508032932 60 81 0.0 0.0 0.00 0.00 0.00 96 1015.0
20260508032430 60 96 0.0 0.0 0.00 0.00 0.00 95 1015.0
20260508031927 60 96 0.0 0.0 0.00 0.00 0.00 95 1015.1
20260508031424 61 56 1.0 1.0 0.00 0.00 0.00 95 1015.2
20260508030919 61 96 0.0 0.0 0.00 0.00 0.00 95 1015.3
20260508030417 61 95 0.0 0.0 0.00 0.00 0.00 95 1015.0
20260508025914 61 82 0.0 0.0 0.00 0.00 0.00 94 1015.2
20260508025411 61 93 0.0 0.0 0.00 0.00 0.00 94 1015.1
20260508024908 61 109 0.0 0.0 0.00 0.00 0.00 94 1015.0
20260508024404 61 109 0.0 0.0 0.00 0.00 0.00 94 1015.1
20260508023901 61 109 0.0 0.0 0.00 0.00 0.00 95 1014.8
20260508023358 61 92 0.0 0.0 0.00 0.00 0.00 95 1014.3
20260508022854 61 92 0.0 0.0 0.00 0.00 0.00 94 1014.4
20260508022350 61 92 0.0 0.0 0.00 0.00 0.00 94 1014.5
20260508021847 61 92 0.0 0.0 0.00 0.00 0.00 94 1014.5
20260508021343 61 88 0.0 0.0 0.00 0.00 0.00 93 1014.5
20260508020839 61 82 0.0 1.0 0.00 0.00 0.00 93 1014.8
20260508020337 61 92 0.0 0.0 0.00 0.00 0.00 93 1014.7
20260508015834 61 80 0.0 0.0 0.00 0.00 0.00 93 1015.2
20260508015331 62 88 0.0 0.0 0.00 0.00 0.00 92 1015.1
20260508014828 62 95 0.0 0.0 0.00 0.00 0.00 92 1014.9
20260508014325 62 89 0.0 0.0 0.00 0.00 0.00 91 1014.9
20260508013820 62 116 0.0 0.0 0.00 0.00 0.00 91 1014.8
20260508013317 62 100 0.0 0.0 0.00 0.00 0.00 91 1015.0
20260508012814 62 98 0.0 0.0 0.00 0.00 0.00 91 1014.5
20260508012312 62 95 0.0 0.0 0.00 0.00 0.00 91 1014.5
20260508011810 62 85 0.0 0.0 0.00 0.00 0.00 90 1014.8
20260508011307 63 97 0.0 0.0 0.00 0.00 0.00 90 1014.5
20260508010803 63 99 0.0 0.0 0.00 0.00 0.00 90 1015.1
20260508010302 63 102 0.0 0.0 0.00 0.00 0.00 90 1015.1
20260508005758 63 53 1.0 1.0 0.00 0.00 0.00 90 1015.8
20260508005255 63 135 1.0 1.0 0.00 0.00 0.00 90 1015.2
20260508004750 63 116 0.0 0.0 0.00 0.00 0.00 89 1014.8
20260508004247 63 140 1.0 1.0 0.00 0.00 0.00 89 1014.5
20260508003744 63 93 0.0 0.0 0.00 0.00 0.00 88 1014.5
20260508003241 64 96 0.0 0.0 0.00 0.00 0.00 88 1014.6
20260508002737 64 74 1.0 1.0 0.00 0.00 0.00 88 1014.8
20260508002235 64 98 0.0 0.0 0.00 0.00 0.00 88 1015.2
20260508001730 64 128 0.0 0.0 0.00 0.00 0.00 88 1015.9
20260508001226 64 114 0.0 0.0 0.00 0.00 0.00 88 1014.3
20260508000723 64 99 0.0 0.0 0.00 0.00 0.00 87 1014.1
20260508000220 64 102 0.0 0.0 0.00 0.00 0.00 87 1014.2
20260507235716 64 105 0.0 0.0 0.00 0.00 0.00 86 1014.5
20260507235214 64 100 0.0 0.0 0.00 0.00 0.00 86 1014.3
20260507234711 64 54 1.0 1.0 0.00 0.00 0.00 86 1014.7
20260507234208 64 61 1.0 1.0 0.00 0.00 0.00 85 1014.4
20260507233704 64 106 0.0 0.0 0.00 0.00 0.00 85 1014.6
20260507233202 65 101 0.0 0.0 0.00 0.00 0.00 85 1014.8
20260507232659 65 95 0.0 0.0 0.00 0.00 0.00 85 1015.3
20260507232156 65 109 0.0 0.0 0.00 0.00 0.00 83 1015.1
20260507231652 65 107 0.0 0.0 0.00 0.00 0.00 84 1015.0
20260507231149 65 107 0.0 0.0 0.00 0.00 0.00 84 1014.9
20260507230646 65 101 0.0 0.0 0.00 0.00 0.00 83 1015.1
20260507230143 66 102 0.0 0.0 0.00 0.00 0.00 83 1014.9
20260507225643 66 105 0.0 0.0 0.00 0.00 0.00 82 1015.0
20260507225140 66 103 0.0 0.0 0.00 0.00 0.00 79 1015.2
20260507224635 66 96 0.0 0.0 0.00 0.00 0.00 77 1015.0
20260507224132 66 105 0.0 0.0 0.00 0.00 0.00 77 1014.8
20260507223628 66 103 0.0 0.0 0.00 0.00 0.00 79 1014.5
20260507223125 67 104 0.0 0.0 0.00 0.00 0.00 80 1015.0
20260507222622 67 64 1.0 1.0 0.00 0.00 0.00 80 1015.1
20260507222119 67 99 0.0 0.0 0.00 0.00 0.00 79 1015.0
20260507221614 67 89 0.0 0.0 0.00 0.00 0.00 78 1014.9
20260507221112 66 104 0.0 0.0 0.00 0.00 0.00 77 1015.2
20260507220609 67 103 0.0 0.0 0.00 0.00 0.00 79 1015.0
20260507220106 67 103 0.0 0.0 0.00 0.00 0.00 76 1015.2
20260507215602 67 103 0.0 0.0 0.00 0.00 0.00 75 1015.1
20260507215100 67 97 0.0 0.0 0.00 0.00 0.00 75 1015.6
20260507214557 67 98 0.0 0.0 0.00 0.00 0.00 76 1015.2
20260507214053 67 92 0.0 0.0 0.00 0.00 0.00 73 1015.0
20260507213550 68 112 0.0 0.0 0.00 0.00 0.00 71 1015.4
20260507213047 68 118 0.0 0.0 0.00 0.00 0.00 73 1015.1
20260507212543 68 85 0.0 0.0 0.00 0.00 0.00 71 1015.0
20260507212040 68 109 0.0 0.0 0.00 0.00 0.00 69 1015.0
20260507211536 69 31 1.0 1.0 0.00 0.00 0.00 73 1015.3
20260507211032 68 121 0.0 0.0 0.00 0.00 0.00 69 1015.2
20260507210530 68 77 0.0 0.0 0.00 0.00 0.00 73 1015.1
20260507210027 68 90 0.0 0.0 0.00 0.00 0.00 74 1015.2
20260507205523 67 101 0.0 0.0 0.00 0.00 0.00 70 1015.3
20260507205019 67 100 0.0 0.0 0.00 0.00 0.00 72 1015.6
20260507204516 67 100 0.0 0.0 0.00 0.00 0.00 77 1015.6
20260507204014 66 116 0.0 0.0 0.00 0.00 0.00 75 1015.7
20260507203511 66 103 0.0 0.0 0.00 0.00 0.00 75 1015.6
20260507203008 66 109 0.0 0.0 0.00 0.00 0.00 73 1016.1
20260507202504 66 109 0.0 0.0 0.00 0.00 0.00 73 1015.9
20260507202000 66 112 0.0 0.0 0.00 0.00 0.00 75 1015.8
20260507201455 66 102 0.0 0.0 0.00 0.00 0.00 71 1016.0
20260507200952 67 95 0.0 0.0 0.00 0.00 0.00 71 1016.1
20260507200448 66 101 0.0 0.0 0.00 0.00 0.00 72 1016.2
20260507195944 67 116 0.0 0.0 0.00 0.00 0.00 71 1016.5
20260507195442 67 107 0.0 0.0 0.00 0.00 0.00 71 1016.2
20260507194939 67 106 0.0 0.0 0.00 0.00 0.00 70 1016.2
20260507194435 67 110 0.0 0.0 0.00 0.00 0.00 68 1016.2
20260507193931 66 93 0.0 0.0 0.00 0.00 0.00 71 1016.1
20260507193429 66 106 0.0 0.0 0.00 0.00 0.00 71 1015.9
20260507192925 66 69 0.0 0.0 0.00 0.00 0.00 71 1016.3
20260507192421 66 80 0.0 0.0 0.00 0.00 0.00 71 1016.2
20260507191918 66 103 0.0 0.0 0.00 0.00 0.00 68 1016.3
20260507191415 67 140 0.0 0.0 0.00 0.00 0.00 66 1016.5
20260507190911 67 96 0.0 0.0 0.00 0.00 0.00 68 1016.7
20260507190409 66 102 0.0 0.0 0.00 0.00 0.00 68 1016.8
20260507185908 66 106 0.0 0.0 0.00 0.00 0.00 67 1016.9
20260507185404 66 111 0.0 1.0 0.00 0.00 0.00 66 1016.9
20260507184901 66 106 0.0 0.0 0.00 0.00 0.00 66 1016.9
20260507184400 66 91 1.0 1.0 0.00 0.00 0.00 67 1017.2
20260507183856 66 161 1.0 1.0 0.00 0.00 0.00 66 1017.2
20260507183353 66 99 0.0 0.0 0.00 0.00 0.00 70 1017.1
20260507182851 65 109 0.0 0.0 0.00 0.00 0.00 68 1017.2
20260507182346 65 11 2.0 2.0 0.00 0.00 0.00 67 1017.3
20260507181843 65 142 0.0 0.0 0.00 0.00 0.00 67 1017.4
20260507181338 65 47 0.0 1.0 0.00 0.00 0.00 69 1017.4
20260507180836 65 92 0.0 0.0 0.00 0.00 0.00 68 1017.5
20260507180333 65 82 1.0 1.0 0.00 0.00 0.00 67 1017.6
20260507175828 65 121 0.0 0.0 0.00 0.00 0.00 66 1017.6
20260507175325 64 130 0.0 1.0 0.00 0.00 0.00 67 1017.7
20260507174822 65 119 1.0 1.0 0.00 0.00 0.00 67 1017.4
20260507174320 64 110 0.0 0.0 0.00 0.00 0.00 69 1017.5
20260507173817 65 98 1.0 2.0 0.00 0.00 0.00 69 1017.5
20260507173315 64 100 0.0 0.0 0.00 0.00 0.00 69 1017.5
20260507172811 65 118 1.0 2.0 0.00 0.00 0.00 68 1017.5
20260507172308 64 121 0.0 0.0 0.00 0.00 0.00 71 1017.7
20260507171803 64 164 1.0 1.0 0.00 0.00 0.00 72 1017.3
20260507171301 64 140 1.0 1.0 0.00 0.00 0.00 69 1017.5
20260507170757 64 80 0.0 0.0 0.00 0.00 0.00 69 1017.3
20260507170254 64 38 1.0 2.0 0.00 0.00 0.00 69 1017.4
20260507165750 64 66 0.0 0.0 0.00 0.00 0.00 70 1017.9
20260507165246 64 58 1.0 2.0 0.00 0.00 0.00 70 1017.7
20260507164742 64 111 0.0 0.0 0.00 0.00 0.00 71 1017.9
20260507164239 64 111 0.0 1.0 0.00 0.00 0.00 68 1017.7
20260507163736 64 9 0.0 1.0 0.00 0.00 0.00 70 1017.7
20260507163234 64 103 0.0 0.0 0.00 0.00 0.00 71 1017.6
20260507162730 64 113 0.0 1.0 0.00 0.00 0.00 72 1017.8
20260507162226 63 148 1.0 1.0 0.00 0.00 0.00 69 1017.9
20260507161723 63 101 0.0 0.0 0.00 0.00 0.00 72 1018.1
20260507161220 63 172 2.0 2.0 0.00 0.00 0.00 71 1018.4
20260507160715 63 100 0.0 0.0 0.00 0.00 0.00 71 1018.2
20260507160212 62 107 0.0 1.0 0.00 0.00 0.00 71 1018.3
20260507155708 62 288 0.0 2.0 0.00 0.00 0.00 74 1018.2
20260507155204 62 105 1.0 1.0 0.00 0.00 0.00 71 1018.0
20260507154701 61 97 0.0 0.0 0.00 0.00 0.00 73 1018.3
20260507154159 61 70 0.0 1.0 0.00 0.00 0.00 72 1018.4
20260507153655 61 98 0.0 0.0 0.00 0.00 0.00 72 1018.6
20260507153151 61 125 1.0 2.0 0.00 0.00 0.00 74 1018.5
20260507152648 62 41 1.0 1.0 0.00 0.00 0.00 75 1018.4
20260507152144 61 127 0.0 0.0 0.00 0.00 0.00 75 1018.5
20260507151640 61 197 1.0 1.0 0.00 0.00 0.00 75 1018.3
20260507151137 60 96 0.0 0.0 0.00 0.00 0.00 79 1018.3
20260507150634 60 132 1.0 1.0 0.00 0.00 0.00 78 1018.6
20260507150131 60 113 0.0 1.0 0.00 0.00 0.00 78 1018.6
20260507145626 59 82 0.0 0.0 0.00 0.00 0.00 80 1018.6
20260507145124 59 106 2.0 3.0 0.00 0.00 0.00 78 1018.9
20260507144620 59 107 0.0 0.0 0.00 0.00 0.00 78 1019.1
20260507144119 59 105 0.0 0.0 0.00 0.00 0.00 80 1019.1
20260507143615 58 101 0.0 0.0 0.00 0.00 0.00 80 1018.9
20260507143112 58 117 0.0 0.0 0.00 0.00 0.00 79 1018.7
20260507142607 58 221 0.0 0.0 0.00 0.00 0.00 81 1018.3
20260507142105 58 82 0.0 1.0 0.00 0.00 0.00 81 1018.6
20260507141601 58 127 0.0 0.0 0.00 0.00 0.00 83 1018.6
20260507141058 58 85 0.0 0.0 0.00 0.00 0.00 84 1019.0
20260507140554 57 98 0.0 0.0 0.00 0.00 0.00 83 1019.1
20260507140052 57 108 0.0 0.0 0.00 0.00 0.00 83 1019.0
20260507135549 57 143 0.0 0.0 0.00 0.00 0.00 86 1018.6
20260507135046 56 117 0.0 0.0 0.00 0.00 0.00 86 1018.6
20260507134542 56 100 0.0 0.0 0.00 0.00 0.00 88 1018.5
20260507134038 56 123 0.0 0.0 0.00 0.00 0.00 87 1018.3
20260507133534 56 121 0.0 1.0 0.00 0.00 0.00 89 1018.6
20260507133032 55 71 0.0 0.0 0.00 0.00 0.00 89 1018.6
20260507132529 55 101 0.0 0.0 0.00 0.00 0.00 90 1018.7
20260507132025 55 95 0.0 0.0 0.00 0.00 0.00 90 1018.5
20260507131522 55 96 0.0 0.0 0.00 0.00 0.00 90 1018.6
20260507131019 55 104 0.0 0.0 0.00 0.00 0.00 90 1018.6
20260507130516 54 96 0.0 0.0 0.00 0.00 0.00 90 1018.6
20260507130015 54 83 0.0 0.0 0.00 0.00 0.00 90 1018.8
20260507125513 54 112 1.0 1.0 0.00 0.00 0.00 90 1018.4
20260507125011 54 90 0.0 0.0 0.00 0.00 0.00 90 1018.4
20260507124506 54 91 0.0 0.0 0.00 0.00 0.00 90 1018.4
20260507124004 54 89 0.0 0.0 0.00 0.00 0.00 90 1018.4
20260507123502 54 103 0.0 0.0 0.00 0.00 0.00 90 1018.3
20260507122957 53 108 1.0 1.0 0.00 0.00 0.00 89 1018.4
20260507122453 53 96 0.0 0.0 0.00 0.00 0.00 90 1018.4
20260507121950 53 98 0.0 0.0 0.00 0.00 0.00 90 1018.2
20260507121445 53 98 0.0 0.0 0.00 0.00 0.00 90 1018.1
20260507120942 53 243 0.0 0.0 0.00 0.00 0.00 90 1018.2
20260507120438 53 111 0.0 0.0 0.00 0.00 0.00 90 1018.0
20260507115935 53 110 0.0 0.0 0.00 0.00 0.00 90 1017.9
20260507115431 53 106 0.0 0.0 0.00 0.00 0.00 90 1017.9
20260507114927 53 99 0.0 0.0 0.00 0.00 0.00 90 1017.9
20260507114423 53 100 0.0 0.0 0.00 0.00 0.00 89 1017.8
20260507113921 53 89 0.0 0.0 0.00 0.00 0.00 90 1017.7
20260507113417 53 114 0.0 0.0 0.00 0.00 0.00 89 1017.6
20260507112915 53 104 0.0 0.0 0.00 0.00 0.00 89 1017.6
20260507112412 53 103 0.0 0.0 0.00 0.00 0.00 89 1017.4
20260507111909 53 103 0.0 0.0 0.00 0.00 0.00 89 1017.3
20260507111406 53 116 0.0 0.0 0.00 0.00 0.00 89 1017.6
20260507110902 54 118 0.0 0.0 0.00 0.00 0.00 88 1017.3
20260507110359 54 119 0.0 0.0 0.00 0.00 0.00 88 1017.3
20260507105856 54 110 0.0 0.0 0.00 0.00 0.00 88 1017.1
20260507105352 54 105 0.0 0.0 0.00 0.00 0.00 88 1016.9
20260507104849 54 106 0.0 0.0 0.00 0.00 0.00 88 1016.6
20260507104346 54 104 0.0 0.0 0.00 0.00 0.00 87 1016.3
20260507103842 54 97 0.0 0.0 0.00 0.00 0.00 87 1016.1
20260507103338 54 104 0.0 0.0 0.00 0.00 0.00 88 1016.0
20260507102835 54 102 0.0 0.0 0.00 0.00 0.00 88 1016.0
20260507102331 54 88 0.0 0.0 0.00 0.00 0.00 87 1015.9
20260507101828 54 110 0.0 0.0 0.00 0.00 0.00 88 1016.0
20260507101327 54 106 0.0 0.0 0.00 0.00 0.00 87 1015.9
20260507100825 54 113 0.0 0.0 0.00 0.00 0.00 88 1015.8
20260507100323 53 92 0.0 0.0 0.00 0.00 0.00 88 1015.9
20260507095821 53 139 0.0 0.0 0.00 0.00 0.00 89 1015.6
20260507095317 53 108 0.0 0.0 0.00 0.00 0.00 88 1015.8
20260507094815 53 111 0.0 0.0 0.00 0.00 0.00 89 1015.5
20260507094311 53 98 0.0 0.0 0.00 0.00 0.00 90 1015.5
20260507093808 53 99 0.0 0.0 0.00 0.00 0.00 90 1015.8
20260507093307 53 103 0.0 0.0 0.00 0.00 0.00 89 1015.4
20260507092804 53 109 0.0 0.0 0.00 0.00 0.00 89 1015.7
20260507092300 53 100 0.0 0.0 0.00 0.00 0.00 89 1015.3
20260507091757 54 100 0.0 0.0 0.00 0.00 0.00 88 1015.5
20260507091254 54 109 0.0 0.0 0.00 0.00 0.00 88 1015.3
20260507090754 54 102 0.0 0.0 0.00 0.00 0.00 87 1015.5
20260507090251 54 100 0.0 0.0 0.00 0.00 0.00 87 1015.1
20260507085748 54 101 0.0 0.0 0.00 0.00 0.00 86 1015.3
20260507085244 54 105 0.0 0.0 0.00 0.00 0.00 87 1015.2
20260507084742 54 102 0.0 0.0 0.00 0.00 0.00 86 1015.3
20260507084238 54 105 0.0 0.0 0.00 0.00 0.00 87 1015.2
20260507083736 54 102 0.0 0.0 0.00 0.00 0.00 86 1015.3
20260507083232 55 102 0.0 0.0 0.00 0.00 0.00 87 1015.5
20260507082728 55 104 0.0 0.0 0.00 0.00 0.00 87 1015.5
20260507082224 55 98 0.0 0.0 0.00 0.00 0.00 88 1015.5
20260507081721 55 95 0.0 0.0 0.00 0.00 0.00 87 1015.3
20260507081217 55 109 0.0 0.0 0.00 0.00 0.00 88 1015.5
20260507080714 55 98 0.0 1.0 0.00 0.00 0.00 88 1015.5
20260507080210 55 110 0.0 0.0 0.00 0.00 0.00 89 1015.1
20260507075705 55 109 0.0 0.0 0.00 0.00 0.00 89 1015.3
20260507075202 55 99 0.0 0.0 0.00 0.00 0.00 89 1015.2
20260507074658 55 91 0.0 0.0 0.00 0.00 0.00 90 1015.1
20260507074157 55 98 0.0 0.0 0.00 0.00 0.00 90 1015.3
20260507073653 55 98 0.0 0.0 0.00 0.00 0.00 89 1015.6
20260507073149 55 106 0.0 0.0 0.00 0.00 0.00 90 1015.6
20260507072647 55 83 1.0 1.0 0.00 0.00 0.00 89 1015.4
20260507072144 55 100 0.0 1.0 0.00 0.00 0.00 90 1015.9
20260507071642 55 102 0.0 0.0 0.00 0.00 0.00 89 1015.7
20260507071138 55 93 0.0 0.0 0.00 0.00 0.00 89 1016.1
20260507070635 55 102 0.0 0.0 0.00 0.00 0.00 90 1016.3
20260507070126 55 101 1.0 1.0 0.00 0.00 0.00 89 1016.2
20260507065622 55 97 0.0 0.0 0.00 0.00 0.00 89 1016.2
20260507065119 55 77 0.0 0.0 0.00 0.00 0.00 90 1016.1
20260507064617 56 95 0.0 0.0 0.00 0.00 0.00 90 1016.1
20260507064116 55 114 0.0 0.0 0.00 0.00 0.00 90 1016.2
20260507063613 56 98 0.0 0.0 0.00 0.00 0.00 90 1016.5
20260507063110 56 101 0.0 0.0 0.00 0.00 0.00 91 1016.2
20260507062606 55 103 0.0 0.0 0.00 0.00 0.00 91 1016.4
20260507062104 55 167 0.0 1.0 0.00 0.00 0.00 90 1016.5
20260507061601 56 105 0.0 0.0 0.00 0.00 0.00 91 1016.2
20260507061100 56 101 0.0 0.0 0.00 0.00 0.00 90 1016.6
20260507060557 56 93 0.0 0.0 0.00 0.00 0.00 90 1016.5